Location: Vancouver
(49.2500°N, 123.1330°W)
Time: 08:33:04
(UTC-08:00)

Daily predictions for brighter satellites

Satellite Brightness Start Highest point End
(mag) Time Altitude Azimuth Time Altitude Azimuth Time Altitude Azimuth
Cosmos 1782 3.9 16:44:57 10° SSW 16:48:52 47° WNW 16:52:48 10° N
COSMOS 2406 3.3 16:44:30 10° NNW 16:50:15 90° WSW 16:56:00 10° SSE
Cosmos 2251 Rocket 3.9 16:45:19 10° NNW 16:50:27 43° ENE 16:55:32 10° SE
SL-27 R/B 3.0 16:47:01 10° N 16:50:31 40° ENE 16:53:59 10° SE
Nadezhda 1 Rocket 4.1 16:45:49 10° S 16:51:54 82° W 16:58:07 10° N
CZ-2C R/B 2.9 16:47:43 10° SE 16:52:24 40° ENE 16:57:12 10° N
Genesis I 4.2 16:49:08 10° NNW 16:52:34 27° NE 16:55:57 10° E
MOZ.5/SAFIR/RUBIN 5/SL-8 4.1 16:48:43 10° N 16:53:23 73° WNW 16:58:02 10° SSW
Cosmos 158 Rocket 4.1 16:49:04 10° NNW 16:54:30 84° ENE 16:59:48 10° SSE
Okean 3 3.5 16:52:30 10° S 16:56:44 61° E 17:00:57 10° NNE
Cosmos 1674 Rocket 4.1 16:52:21 10° SSW 16:56:48 65° WNW 17:01:15 10° N
Cosmos 1602 4.3 16:53:32 10° NNW 16:57:27 63° W 17:01:18 10° S
Meteor 1-5 Rocket 4.1 16:55:21 10° N 17:00:44 66° ENE 17:06:15 10° SSE
MOS 1 4.4 16:57:01 10° SE 17:02:31 56° ENE 17:08:03 10° N
Cosmos 2341 Rocket 4.0 16:56:48 10° N 17:03:03 87° E 17:09:17 10° S
Cosmos 1633 3.3 17:00:41 10° NNW 17:04:13 56° W 17:07:43 10° S
Cosmos 2297 Rocket 4.5 17:03:30 10° NW 17:05:16 11° NNW 17:07:03 10° N
Cosmos 2082 Rocket 3.1 17:02:11 10° NNW 17:06:55 27° NE 17:11:40 10° E
Okean 1 Rocket 3.9 17:02:50 10° NNW 17:07:05 54° W 17:11:18 10° S
Cosmos 1484 Rocket 4.0 17:04:46 10° ESE 17:07:28 19° ENE 17:10:10 10° NNE
Cosmos 1833 Rocket 3.7 17:03:44 10° NNW 17:08:19 24° NE 17:12:52 10° E
Cosmos 1544 Rocket 3.8 17:07:16 10° N 17:11:38 49° ENE 17:15:58 10° SSE
Cosmos 1500 4.4 17:10:31 10° NNE 17:13:28 21° ENE 17:16:25 10° ESE
COSMO-SKYMED 1 4.2 17:11:17 11° NE 17:13:33 15° E 17:16:08 10° SE
EO 1 Del DPAF 4.1 17:11:45 10° N 17:15:34 52° WNW 17:19:20 10° SSW
Cosmos 1975 Rocket 3.0 17:15:20 10° S 17:19:37 74° E 17:23:58 10° NNE
SL-16 R/B 4.2 17:17:45 10° N 17:22:55 29° WNW 17:28:05 10° WSW
CZ-3B DEB 3.0 17:20:26 10° S 17:24:10 36° ESE 17:30:54 14° ENE
Cosmos 2263 Rocket 3.4 17:26:20 10° WSW 17:31:32 37° NW 17:36:48 10° NNE
PAYLOAD A 4.4 17:28:24 10° S 17:33:12 66° WSW 17:38:13 10° NNW
Cosmos 1536 Rocket 4.1 17:32:11 10° SSE 17:36:18 38° E 17:40:27 10° NNE
SJ-7 4.4 17:32:38 10° SSE 17:36:52 82° ENE 17:41:09 10° NNW
Cosmos 1536 4.5 17:33:51 10° NNW 17:37:38 38° W 17:41:25 10° SSW
Okean 1 4.0 17:36:48 10° SSE 17:40:29 35° E 17:43:14 16° NNE
GEOS 3 Rocket 3.6 17:37:16 10° ESE 17:42:17 60° NE 17:47:21 10° NW
COSMOS 2487 3.0 17:38:59 10° N 17:42:22 37° ENE 17:45:44 10° SE
Cosmos 1812 2.9 17:39:57 10° S 17:43:42 50° E 17:47:03 13° NNE
YAOGAN 1 2.7 17:40:02 10° SSE 17:44:22 80° WSW 17:48:44 10° NNW
ISS -3.1 17:42:53 10° SW 17:46:08 60° SSE 17:47:33 30° E
CZ-4 R/B 4.4 17:43:22 10° SSE 17:47:31 85° ENE 17:51:43 10° NNW
SPOT 3 Rocket 3.9 17:43:07 10° S 17:48:18 70° WSW 17:53:29 10° NNW
Cosmos 372 Rocket 4.4 17:44:37 10° SW 17:49:50 63° WNW 17:55:05 10° NNE
ATLAS CENTAUR R/B 3.8 17:49:45 10° NW 17:51:53 13° NNW 17:53:58 10° NNE
ASTRO F (AKARI) 4.4 17:52:20 31° NE 17:53:30 49° ESE 17:56:33 10° S
Meteor 1-18 Rocket 4.2 17:49:39 10° S 17:55:15 69° E 18:01:00 10° NNE
USA 234 3.2 17:51:13 19° ENE 17:56:06 81° SE 18:02:39 10° SW
Cosmos 1346 Rocket 3.4 17:52:38 10° SSE 17:56:08 32° E 17:56:33 31° E
Cosmos 1844 Rocket 2.7 17:50:58 10° SSW 17:56:35 84° WNW 18:01:36 14° NNE
Cosmos 1455 Rocket 3.4 17:56:42 10° NNW 18:01:06 70° W 18:05:29 10° S
USA 32 4.2 17:55:59 10° S 18:01:12 75° W 18:06:27 10° N
SKYMED 2 3.9 17:59:56 25° NE 18:02:02 43° E 18:06:11 10° S
ERBS 3.9 18:00:02 10° NW 18:02:47 22° N 18:03:06 22° NNE
NOSS 3-4 (A) 4.0 17:58:36 10° NW 18:05:13 49° NE 18:09:29 23° E
NOSS 3-4 (C) 4.0 17:58:42 10° NW 18:05:18 48° NE 18:09:32 24° E
Abrixas 2.7 18:03:16 10° W 18:06:12 60° SSW 18:06:48 46° SE
Resurs 01 Rocket 3.8 18:11:16 12° NNE 18:11:16 12° NNE 18:11:48 10° N
IDEFIX/ARIANE 42P 3.5 18:04:12 10° S 18:09:14 50° W 18:14:18 10° NNW
Okean 1-7 Rocket 4.4 18:06:14 10° SSE 18:09:43 32° ESE 18:09:43 32° ESE
Cosmos 1844 3.7 18:08:13 10° SSW 18:13:47 83° WNW 18:17:53 19° NNE
NOSS 3-3 (A) 4.1 18:09:38 10° SSW 18:15:43 57° ESE 18:18:57 30° ENE
NOSS 3-3 (C) 4.1 18:09:45 10° SSW 18:15:50 57° ESE 18:19:02 30° ENE
Cosmos 2297 4.2 18:11:10 10° S 18:16:13 36° ESE 18:17:03 34° E
CZ-4 R/B 3.7 18:13:18 10° SSW 18:16:53 27° W 18:20:25 10° NW
SL-24 DEB 4.2 18:14:43 10° N 18:19:31 86° W 18:24:14 10° S
ATLAS 2AS CENTAUR R/B 4.1 18:12:46 10° NW 18:20:22 46° WSW 18:27:31 10° S
Thor Agena Rocket 4.1 18:15:39 10° N 18:20:45 59° WNW 18:25:53 10° SSW
Cosmos 1975 3.3 18:16:48 10° NNW 18:20:50 62° W 18:24:50 10° S
Cosmos 1535 Rocket 4.5 18:20:51 10° N 18:27:08 59° ENE 18:33:17 10° SSE
Cosmos 1934 Rocket 4.1 18:21:35 10° N 18:27:33 48° ENE 18:33:34 10° SSE
Cosmos 1238 Rocket 3.7 18:25:03 10° SW 18:27:48 35° WNW 18:29:31 20° NNW
Cosmos 1809 Rocket 4.5 18:22:32 10° NNW 18:28:44 82° W 18:34:51 10° S
Cosmos 2278 Rocket 2.1 18:24:32 10° SSW 18:30:11 85° ESE 18:33:06 30° NNE
Genesis I 4.1 18:26:39 10° NW 18:30:28 49° WSW 18:33:33 14° SSE
CZ-2C R/B 4.3 18:26:17 10° SSW 18:30:44 32° W 18:35:19 10° NNW
Timation 2 Rocket 4.3 18:31:40 10° NNW 18:38:30 79° WSW 18:45:23 10° SSE
Cosmos 1743 3.5 18:36:16 10° N 18:44:54 - S 18:38:51 40° N
FengYun 1-2 T 4.4 18:40:47 50° ENE 18:41:05 51° ENE 18:46:34 10° N
Meteor 1-19 Rocket 4.2 18:35:42 10° S 18:41:23 61° E 18:43:21 40° NE
Cosmos 1484 Rocket 4.0 18:38:09 10° S 18:41:42 40° W 18:45:15 10° NNW
Cosmos 2239 Rocket 4.3 18:37:13 10° N 18:43:29 78° E 18:49:39 10° SSE
Meteor 1-15 Rocket 4.4 18:38:30 10° N 18:44:11 51° ENE 18:44:11 51° ENE
SL-8 R/B 4.0 18:42:10 10° SW 18:46:47 51° SSE 18:46:48 51° SSE
DMSP B5D1-3 4.4 18:46:14 36° NNE 18:48:27 86° ESE 18:53:36 10° SSW
NOAA 12 4.1 18:44:15 10° SSE 18:49:32 83° WSW 18:54:51 10° NNW
COSMO-SKYMED 1 2.9 18:48:30 36° N 18:50:09 65° WNW 18:54:27 10° SSW
Cosmos 2082 Rocket 2.4 18:45:54 10° NNW 18:51:33 70° WSW 18:57:11 10° SSE
Cosmos 1833 Rocket 2.7 18:47:14 10° NNW 18:52:54 79° WSW 18:56:47 21° SSE
Cosmos 1821 Rocket 3.8 18:47:00 10° N 18:53:09 86° E 18:59:15 10° S
METEOR-M 4.1 18:52:50 10° SSE 18:58:11 83° WSW 19:03:35 10° NNW
Meteor 1-13 Rocket 4.2 18:53:12 10° SSW 18:58:54 85° WNW 19:02:14 27° N
Cosmos 1605 Rocket 4.0 18:57:12 10° N 19:02:48 58° NE 19:02:48 58° NE
BREEZE M DEB (TANK) 3.9 19:01:57 10° SW 19:05:51 29° SSW 19:05:51 29° SSW
SL-24 R/B - RUBIN 2 4.4 19:09:30 10° SW 19:15:58 86° SE 19:16:33 76° NE
Timation 1 Rocket 4.4 19:16:35 10° SSW 19:21:49 70° SSW 19:21:49 70° SSW
ISS -0.2 19:19:25 10° W 19:20:13 16° W 19:20:13 16° W
Meteor 2-9 Rocket 4.4 19:22:23 10° NNW 19:27:50 64° W 19:28:01 63° WSW
USA 234 3.6 19:38:34 53° N 19:38:56 53° NNW 19:45:15 10° W
NOSS 3-4 (A) 4.2 19:49:36 10° NW 19:56:23 56° WSW 19:57:00 54° SW
NOSS 3-4 (C) 4.2 19:49:42 10° NW 19:56:29 56° WSW 19:57:03 55° SW
CZ-3B DEB 3.4 19:52:25 10° W 19:58:21 69° NNW 19:59:30 64° NNE
Cosmos 2278 Rocket 4.1 20:10:35 10° W 20:14:59 23° NW 20:14:59 23° NW
